{"data":{"norad_id":40960,"epoch":"2026-09-20T05:09:45.123840Z","epoch_age_seconds":65825,"freshness":"FRESH","line1":"1 40960U 15057C   26263.21510560  .00000648  00000+0  97317-4 0  9994","line2":"2 40960  97.6680 254.5129 0016102 325.5271  34.4894 14.77606819589485","mean_motion":14.77606819,"eccentricity":0.0016102,"inclination_deg":97.668,"raan_deg":254.5129,"arg_perigee_deg":325.5271,"mean_anomaly_deg":34.4894,"bstar":9.7317e-5,"rev_number":58948,"period_min":97.45488322628,"perigee_km":625.59284409091,"apogee_km":648.18403201161,"semimajor_km":7015.0254380513,"source":"CELESTRAK","updated_at":"2026-09-20T09:00:14.108337Z"}}